Regional Weather Roundup
Issued by NWS

Home | Current Version | Previous Version | Text Only | Print | Product List | Glossary On
Versions: 1 2 3 4 5 6 7 8 9 10 11 12 13 14 15 16 17 18 19 20 21 22 23 24 25 26 27 28 29 30 31 32 33 34 35 36 37 38 39 40 41 42 43 44 45 46 47 48 49 50
000
ASUS43 KMPX 250010
RWRMN
WEATHER ROUNDUP FOR MINNESOTA
NATIONAL WEATHER SERVICE TWIN CITIES/CHANHASSEN MN
600 PM CST TUE JAN 24 2017


NOTE: "FAIR" INDICATES FEW OR NO CLOUDS BELOW 12,000 FEET WITH NO
SIGNIFICANT WEATHER AND/OR OBSTRUCTIONS TO VISIBILITY. N/A MEANS
CURRENT SKY AND/OR WEATHER CONDITIONS ARE NOT AVAILABLE.

MNZ060>063-068>070-250100-
   Twin Cities Metro

CITY           SKY/WX    TMP DP  RH WIND       PRES   REMARKS
TWIN CITIES    CLOUDY    33  26  75 NE12      29.79F WCI  24
6HR MIN TEMP:  32; 6HR MAX TEMP:  33;

ST PAUL        CLOUDY    33  28  81 E6        29.81F WCI  28
CRYSTAL        CLOUDY    32  24  72 E6        29.79S WCI  26
BLAINE         CLOUDY    34  30  86 NE5       29.80S WCI  30
LAKEVILLE      CLOUDY    30  30 100 NE7       29.77S WCI  23
EDEN PRAIRIE   CLOUDY    32  26  78 NE10      29.77F WCI  24
6HR MIN TEMP:  32; 6HR MAX TEMP:  33;

SOUTH ST PAUL  CLOUDY    33  29  85 NE6       29.79S WCI  28
LAKE ELMO      CLOUDY    32  30  93 NE6       29.80S WCI  26
$$
MNZ001>005-007-008-013>017-022>024-027-028-250100-
   Northwest Minnesota

CITY           SKY/WX    TMP DP  RH WIND       PRES   REMARKS
BEMIDJI        CLOUDY    26  22  86 NW6       29.85S WCI  19
HALLOCK        CLOUDY    28  25  86 NW8       29.89S WCI  20
ROSEAU         MOCLDY    28  23  80 W5        29.88R WCI  23
WARROAD        CLOUDY    27  23  86 W3        29.88R
THIEF RVR FALL   N/A     25  22  88 W5        29.89R WCI  19
CROOKSTON      CLOUDY    27  23  86 CALM      29.90S
FOSSTON        CLOUDY    23  19  86 N8        29.87S WCI  14
DETROIT LAKES  CLOUDY    27  25  93 N6        29.84S WCI  20
MOORHEAD       CLOUDY    27  23  86 N13       29.87S WCI  16
PARK RAPIDS    CLOUDY    30  22  72 N8        29.80F WCI  22
MAHNOMEN       CLOUDY    24  21  87 N10       29.86R WCI  14
$$
MNZ006-009>011-018-025>026-250100-
   North Central Minnesota

CITY           SKY/WX    TMP DP  RH WIND       PRES   REMARKS
BAUDETTE       CLOUDY    26  21  81 CALM      29.86R
FLAG ISLAND    CLOUDY    27  23  86 S5        29.86R WCI  21
INTL FALLS     CLOUDY    25  19  78 CALM      29.87R
6HR MIN TEMP:  25; 6HR MAX TEMP:  28;

WASKISH        CLOUDY    25  21  86 CALM      29.87S
BIG FORK       CLOUDY    30  23  74 CALM      29.85R
LONGVILLE      CLOUDY    28  25  86 CALM      29.82S
GRAND RAPIDS   CLOUDY    28  23  81 N5        29.85S WCI  23
CRANE LAKE     CLOUDY    27  25  93 CALM      29.88R
ORR            CLOUDY    28  21  74 CALM      29.83S
COOK           CLOUDY    27  23  86 CALM      29.85F
WALKER         CLOUDY    28  24  82 N9        29.83S WCI  20
$$
MNZ012-019>021-037-250100-
   Northeast Minnesota

CITY           SKY/WX    TMP DP  RH WIND       PRES   REMARKS
DULUTH         CLOUDY    30  25  81 N6        29.81S WCI  24
6HR MIN TEMP:  30; 6HR MAX TEMP:  32;

ELY            CLOUDY    28  27  93 CALM      29.83F
HIBBING        CLOUDY    27  24  89 NE5       29.82F WCI  22
EVELETH        CLOUDY    30  25  83 CALM      29.84F
DULUTH HARBOR  CLOUDY    34  28  80 N7        29.85F WCI  28
TWO HARBORS    CLOUDY    34  27  75 N3        29.82S
SILVER BAY     CLOUDY    32  28  86 N3        29.82S
GRAND MARAIS     N/A     35  28  75 NW5       29.86R WCI  31
G MARAIS ARPRT CLOUDY    28  23  80 CALM      29.82R
$$
MNZ029>031-032-039>041-046>048-054>057-064-250100-
   West Central Minnesota

CITY           SKY/WX    TMP DP  RH WIND       PRES   REMARKS
FERGUS FALLS   CLOUDY    28  25  86 NE8       29.87S WCI  20
WHEATON        CLOUDY    28  27  93 N12       29.86R WCI  18
MORRIS         CLOUDY    32  28  86 N8        29.80R WCI  25
ALEXANDRIA     CLOUDY    30  25  81 NE10      29.80S WCI  21
ELBOW LAKE     CLOUDY    30  26  86 NE10      29.81S FOG     WCI  21
WADENA         CLOUDY    28  25  86 N6        29.82R WCI  22
GLENWOOD       CLOUDY    30  27  86 NE14      29.79R WCI  20
APPLETON       CLOUDY    34  28  80 NE7       29.80R WCI  28
MADISON        CLOUDY    34  30  86 NE5       29.79S WCI  30
WILLMAR        CLOUDY    32  28  86 NE7       29.80R WCI  26
$$
MNZ033>034-036-042>043-049>051-058-059-250100-
   Central Minnesota

CITY           SKY/WX    TMP DP  RH WIND       PRES   REMARKS
ST CLOUD       CLOUDY    31  26  82 E8        29.80F WCI  23
6HR MIN TEMP:  31; 6HR MAX TEMP:  32;

SAUK CENTRE    CLOUDY    30  26  84 NE7       29.79F WCI  23
PAYNESVILLE    CLOUDY    31  30  96 NE9       29.79S WCI  23
AITKIN         CLOUDY    32  25  74 NE5       29.81R WCI  27
PINE RIVER     CLOUDY    28  25  86 NE6       29.86R WCI  22
BRAINERD       CLOUDY    29  24  82 VRB3      29.83R
STAPLES        CLOUDY    28  25  86 N3        29.82R
LONG PRAIRIE   CLOUDY    30  27  86 N5        29.80F WCI  25
LITTLE FALLS   CLOUDY    30  27  86 CALM      29.81F
LITCHFIELD     CLOUDY    30  28  93 E5        29.79S WCI  25
BUFFALO        CLOUDY    31  26  82 NE8       29.81S WCI  24
MAPLE LAKE     CLOUDY    32  28  85 NE9       29.80F WCI  24
HUTCHINSON     CLOUDY    32  28  86 NE10      29.79S WCI  23
$$
MNZ037-044-045-052-053-250100-
   East Central Minnesota

CITY           SKY/WX    TMP DP  RH WIND       PRES   REMARKS
PRINCETON      CLOUDY    32  27  80 NE6       29.81F WCI  26
MORA           CLOUDY    32  27  80 NE5       29.84S WCI  27
CAMBRIDGE      CLOUDY    34  25  69 NE6       29.79F WCI  29
RUSH CITY      CLOUDY    32  27  80 NE3       29.82F
MOOSE LAKE     CLOUDY    32  27  80 CALM      29.82R
HINCKLEY       CLOUDY    32  28  86 NE3       29.82S
CLOQUET        CLOUDY    30  25  80 N3        29.81S
MCGREGOR       CLOUDY    30  27  86 NE3       29.83R
$$
MNZ071>073-080-081-089-090-097-098-250100-
   Southwest Minnesota

CITY           SKY/WX    TMP DP  RH WIND       PRES   REMARKS
MONTEVIDEO     CLOUDY    30  28  93 E8        29.80S WCI  23
GRANITE FALLS  CLOUDY    32  29  87 NE10      29.80R WCI  24
CANBY          CLOUDY    32  29  90 CALM      29.78S
REDWOOD FALLS  CLOUDY    31  25  78 NE7       29.77S WCI  24
OLIVIA         CLOUDY    32  28  86 E9        29.77S WCI  24
PIPESTONE      CLOUDY    28  28 100 E10G16    29.72R FOG     WCI  19
WINDOM         CLOUDY    30  28  93 NE14      29.73R FOG     WCI  20
WORTHINGTON    LGT SNOW  29  27  92 MISG        N/A  FOG
JACKSON        LGT SNOW  30  28  93 E14       29.73R WCI  20
TRACY          CLOUDY    30  28  93 NE12      29.75R FOG     WCI  21
SLAYTON        CLOUDY    27  27  99 NE10G16   29.72R FOG     WCI  18
$$
MNZ065>067-074>077-082>085-091>093-250100-
   South Central Minnesota

CITY           SKY/WX    TMP DP  RH WIND       PRES   REMARKS
MANKATO        CLOUDY    31  28  89 NE8       29.75S WCI  23
NEW ULM        CLOUDY    30  27  86 E9        29.75S WCI  22
ST JAMES       CLOUDY    30  28  93 NE13      29.75R FOG     WCI  20
FAIRMONT       CLOUDY    30  28  92 E14       29.74R FOG     WCI  19
GLENCOE        CLOUDY    32  30  91 NE6       29.77S WCI  26
OWATONNA       CLOUDY    30  27  86 E9        29.74S HAZE    WCI  22
WASECA         CLOUDY    32  30  93 NE14      29.75S WCI  22
ALBERT LEA     CLOUDY    30  28  93 NE14      29.71S WCI  20
$$
MNZ078>079-086>088-094>096-250100-
   Southeast Minnesota

CITY           SKY/WX    TMP DP  RH WIND       PRES   REMARKS
ROCHESTER      CLOUDY    30  27  88 NE14      29.72F WCI  19
6HR MIN TEMP:  29; 6HR MAX TEMP:  30;

RED WING       CLOUDY    34  27  75 E6        29.78S WCI  29
STANTON        CLOUDY    33  29  83 NE6       29.76S WCI  28
DODGE CENTER   CLOUDY    30  27  86 MISG      29.73F
WINONA         CLOUDY    34  30  86 NE5       29.78S WCI  30
AUSTIN         CLOUDY    30  27  86 NE8       29.72R WCI  23
PRESTON        CLOUDY    31  29  91 E9        29.73S WCI  23
$$
ABBREVIATIONS USED IN REMARKS
   TC - TEMPERATURES IN CELSIUS
  WCI - WIND CHILL INDEX
   HX - HEAT INDEX
  VSB - VISIBILITY
$$




USA.gov is the U.S. government's official web portal to all federal, state and local government web resources and services.